Location: Newark
(7.0858°N, 171.3717°E)
Time: 15:50:43
(UTC+00:00)

Vanguard 3 - Pass Details

Date: 04 December 2020
Orbit: 508 x 3262 km, 33.4° (Epoch: 14 January)

Event Time Altitude Azimuth Distance (km) Brightness Sun altitude
Exits shadow 15:39:49 52° 191° (SSW) 2,080 9.0 -40.7°
Drops below altitude 10° 15:52:11 10° 138° (SE) 5,226 11.9 -37.9°
Sets 15:57:20 0° 134° (SE) 6,615 12.6 -36.7°
